[[{"header":{"parameterUnit":"m.s-1","parameterCategory":1,"la1":30.2991,"la2":30.254,"lo1":-89.0895,"lo2":-89.0444,"dy":0.0017,"dx":0.0017,"nx":28,"ny":28,"refTime":"2023-06-19T21:00:00:Z","depth":0,"parameterNumber":2,"parameterNumberName":"U-component_of_WINDS"},"data":[0,0,0,0,0,0,0,0,0,0,0,0,0,0,0,0,0,0,0,0,0,0,0,0,0,0,0,0,0,0,0,0,0,0,0,0,0,0,0,0,0,0,0,0,0,0,0,0,0,0,0,0,0,0,0,0,0,0,3.8457,3.8459,0,3.8644,3.8646,3.8648,3.8672,3.867,3.8668,3.8666,3.8858,3.8864,3.8871,0,0,0,0,0,0,0,0,0,0,0,0,0,3.8124,3.813,3.8457,3.846,3.8462,3.8643,3.8646,3.8648,3.8672,3.867,3.8667,3.8665,3.8856,3.8864,3.8872,0,0,0,0,0,0,0,0,0,0,0,0,0,3.8285,3.8132,3.8457,3.8495,3.8501,3.8643,3.8646,3.8649,3.8672,3.867,3.8667,3.8664,3.8853,3.8863,3.8873,3.899,0,0,3.8904,3.8908,0,0,0,0,0,0,0,0,3.8276,3.8297,3.8487,3.8493,3.8499,3.8632,3.8598,3.8763,3.8673,3.8607,3.8666,3.8663,3.8785,3.88,3.8841,3.8999,3.9007,3.8905,3.8911,3.8915,3.8918,0,0,0,0,0,0,0,3.8265,3.8289,3.8531,3.849,3.8497,3.8504,3.8524,3.863,3.8709,3.8613,3.8615,3.8637,3.8788,3.8831,3.8846,3.901,3.8905,3.8914,3.892,3.8924,3.9273,3.9276,0,0,0,0,0,0,3.8246,3.828,3.8525,3.8537,3.8379,3.8512,3.8535,3.8592,3.8708,3.8723,3.8639,3.8637,3.8815,3.8834,3.8853,3.8997,3.8915,3.8925,3.8931,3.927,3.9273,3.9277,0,0,0,0,0,0,3.8239,3.8268,3.8518,3.8409,3.8441,3.8521,3.8585,3.8597,3.8641,3.8727,3.8742,3.8669,3.8814,3.8838,3.8955,3.9004,3.8929,3.8939,3.9266,3.9271,3.9275,3.9286,0,0,0,0,0,0,3.8229,3.8265,3.831,3.841,3.8447,3.8617,3.8588,3.8603,3.8658,3.8658,3.876,3.8774,3.8814,3.894,3.8966,3.9017,3.8947,3.9262,3.9268,3.9274,3.9282,3.9291,3.9298,0,0,0,0,0,3.8217,3.8305,3.8312,3.8341,3.8504,3.8619,3.8641,3.8684,3.8662,3.8708,3.8764,3.8771,3.8995,3.8952,3.8981,3.9035,3.9259,3.9266,3.9273,3.9278,3.9289,3.9298,0,0,0,0,0,0,3.8209,3.8319,3.8327,3.8451,3.8525,3.8623,3.8682,3.8695,3.8777,3.8774,3.8825,3.8848,3.8962,3.9011,3.8961,3.9155,3.9125,3.9138,3.9119,3.913,3.9138,3.9123,3.8955,0,0,0,0,0,3.8221,3.8305,3.8397,3.8497,3.8534,3.8602,3.8653,3.8681,3.8761,3.8792,3.8857,3.8934,3.9022,3.9079,3.9165,3.9289,3.9312,3.9342,3.935,3.9356,3.9366,3.9436,3.945,3.93,3.93,3.93,0,0,3.8248,3.8319,3.8368,3.8497,3.8558,3.8644,3.8628,3.872,3.8784,3.8806,3.892,3.8971,3.9061,3.9182,3.9239,3.9226,3.9413,3.9365,3.937,3.9377,3.9445,3.9459,3.9472,3.9305,3.9304,3.9303,0,0,3.834,3.8402,3.8492,3.8554,3.8647,3.8691,3.8713,3.8809,3.8843,3.8959,3.8978,3.9055,3.9206,3.9269,3.9321,3.9439,3.9448,3.9465,3.9508,3.9575,3.9587,3.9598,3.964,3.9654,3.9476,3.9476,3.9476,0,3.8361,3.8491,3.8537,3.8628,3.8684,3.8709,3.88,3.8858,3.8975,3.9013,3.8997,3.9187,3.9249,3.9386,3.9415,3.9456,3.9483,3.9453,3.9582,3.9593,3.9604,3.9644,3.966,3.9477,3.9477,3.9477,3.9477,0,3.8512,3.8602,3.8664,3.8775,3.8839,3.893,3.899,3.9049,3.9071,3.9118,3.9235,3.9311,3.9413,3.9448,3.9471,3.9588,3.9577,3.9571,3.9542,3.9619,3.9657,3.9673,3.9479,3.9479,3.9478,3.9478,0,0,3.8603,3.8739,3.8761,3.8812,3.8917,3.8988,3.908,3.918,3.9229,3.9309,3.9388,3.9515,3.9511,3.957,3.96,3.966,3.9748,3.9647,3.9649,3.9662,3.9882,3.9884,3.9901,3.9755,3.9758,3.9761,3.9874,0,3.8707,3.8871,3.8916,3.9056,3.9139,3.9165,3.9246,3.9319,3.9365,3.9444,3.9495,3.9584,3.9572,3.9607,3.9667,3.9724,3.9792,3.9717,3.9829,3.9832,3.9804,3.9922,3.9925,4.0028,3.9889,3.9892,3.9894,0,3.8849,3.8931,3.9079,3.9174,3.9211,3.9283,3.9377,3.9452,3.9536,3.9566,3.9632,3.9658,3.9756,3.9722,3.9858,3.9806,3.9855,3.989,3.9895,3.9906,3.9867,3.9935,4.0062,4.0076,3.9918,3.9916,3.9914,0,3.8899,3.9048,3.9155,3.9198,3.9312,3.9361,3.9411,3.9493,3.955,3.9633,3.9671,3.9765,3.9816,3.9888,3.9939,3.991,4.0071,4.0041,4.0098,4.0097,4.0129,4.0126,4.0264,4.0163,4.0163,4.0162,4.0162,0,3.9009,3.9099,3.9179,3.9245,3.9347,3.9398,3.9497,3.9548,3.962,3.9697,3.9726,3.9797,3.986,3.994,3.9981,4.0087,4.011,4.0137,4.0147,4.0134,4.013,4.0166,4.0159,4.0166,4.0166,4.0165,4.0164,0,3.9082,3.9139,3.9259,3.9356,3.9383,3.9453,3.9537,3.9603,3.9651,3.9748,3.9774,3.9849,3.9945,4.0003,4.0125,4.0152,4.0269,4.0276,4.024,4.0244,4.0297,4.0291,4.0462,4.0487,4.0369,4.0371,4.0371,0,3.9148,3.9217,3.9322,3.9376,3.9426,3.9512,3.957,3.9624,3.9683,3.9785,3.9839,3.9937,4.0018,4.017,4.0236,4.033,4.0339,4.0392,4.0353,4.0338,4.0339,4.0333,4.0341,4.0398,4.0399,4.04,4.0401,0,3.9259,3.9284,3.9366,3.946,3.9529,3.9605,3.9681,3.9723,3.9789,3.9855,3.9954,4.0017,4.0141,4.0238,4.0338,4.039,4.0407,4.0413,4.0431,4.0418,4.0394,4.0407,4.0257,4.0408,4.0408,4.0407,4.0407,4.0406,3.933,3.9392,3.9476,3.9568,3.963,3.9701,3.9767,3.9824,3.9906,4.0011,4.0039,4.0142,4.0226,4.0361,4.0415,4.0497,4.0489,4.0515,4.0521,4.0527,4.0528,4.0382,4.0516,4.0516,4.0516,4.0516,4.0515,0,3.9441,3.9496,3.958,3.9685,3.9757,3.9767,3.9852,3.9912,4.0002,4.0079,4.0158,4.0272,4.0366,4.044,4.0537,4.0589,4.0599,4.0612,4.0608,4.062,4.053,4.0504,4.0602,4.0602,4.0602,4.0602,4.0602,4.0602,3.9507,3.9614,3.9649,3.9788,3.9843,3.9944,3.9992,4.0057,4.0118,4.0244,4.0322,4.037,4.0445,4.0548,4.0636,4.0655,4.0689,4.0701,4.0722,4.0636,4.0626,4.0617,4.0593,4.0708,4.0709,4.0805,4.0806,4.0806]},{"header":{"parameterUnit":"m.s-1","parameterCategory":1,"la1":30.2991,"la2":30.254,"lo1":-89.0895,"lo2":-89.0444,"dy":0.0017,"dx":0.0017,"nx":28,"ny":28,"refTime":"2023-06-19T21:00:00:Z","depth":0,"parameterNumber":3,"parameterNumberName":"V-component_of_WINDS"},"data":[0,0,0,0,0,0,0,0,0,0,0,0,0,0,0,0,0,0,0,0,0,0,0,0,0,0,0,0,0,0,0,0,0,0,0,0,0,0,0,0,0,0,0,0,0,0,0,0,0,0,0,0,0,0,0,0,0,0,-0.5602,-0.5602,0,-0.5618,-0.5619,-0.5619,-0.5618,-0.5618,-0.5617,-0.5617,-0.5632,-0.5633,-0.5633,0,0,0,0,0,0,0,0,0,0,0,0,0,-0.5567,-0.5568,-0.5602,-0.5602,-0.5602,-0.5618,-0.5619,-0.5619,-0.5618,-0.5618,-0.5617,-0.5617,-0.5632,-0.5633,-0.5633,0,0,0,0,0,0,0,0,0,0,0,0,0,-0.5583,-0.5568,-0.5602,-0.5604,-0.5604,-0.5618,-0.5619,-0.5619,-0.5618,-0.5618,-0.5617,-0.5617,-0.5632,-0.5633,-0.5634,-0.5646,0,0,-0.5636,-0.5637,0,0,0,0,0,0,0,0,-0.5582,-0.5584,-0.5603,-0.5604,-0.5604,-0.5616,-0.5612,-0.5628,-0.5618,-0.5613,-0.5617,-0.5617,-0.5627,-0.5628,-0.5632,-0.5647,-0.5648,-0.5637,-0.5637,-0.5637,-0.5638,0,0,0,0,0,0,0,-0.5581,-0.5583,-0.5608,-0.5604,-0.5604,-0.5603,-0.5605,-0.5615,-0.5621,-0.5613,-0.5613,-0.5615,-0.5627,-0.5631,-0.5632,-0.5648,-0.5636,-0.5637,-0.5638,-0.5638,-0.5674,-0.5674,0,0,0,0,0,0,-0.558,-0.5583,-0.5608,-0.5609,-0.5592,-0.5604,-0.5606,-0.5612,-0.5621,-0.5622,-0.5615,-0.5615,-0.563,-0.5631,-0.5633,-0.5648,-0.5637,-0.5638,-0.5639,-0.5673,-0.5674,-0.5674,0,0,0,0,0,0,-0.5579,-0.5582,-0.5607,-0.5596,-0.5599,-0.5605,-0.5612,-0.5613,-0.5617,-0.5623,-0.5624,-0.5619,-0.5629,-0.5632,-0.5643,-0.5649,-0.5639,-0.564,-0.5673,-0.5674,-0.5674,-0.5679,0,0,0,0,0,0,-0.5578,-0.5582,-0.5587,-0.5596,-0.56,-0.5618,-0.5612,-0.5613,-0.5619,-0.5618,-0.5626,-0.5627,-0.5629,-0.5642,-0.5644,-0.565,-0.564,-0.5673,-0.5673,-0.5674,-0.5678,-0.5679,-0.568,0,0,0,0,0,-0.5577,-0.5587,-0.5587,-0.559,-0.5607,-0.5618,-0.562,-0.5623,-0.5619,-0.5624,-0.5628,-0.5627,-0.5648,-0.5643,-0.5645,-0.5651,-0.5672,-0.5673,-0.5674,-0.5677,-0.5679,-0.568,0,0,0,0,0,0,-0.5578,-0.5589,-0.5589,-0.5603,-0.561,-0.5618,-0.5624,-0.5624,-0.5632,-0.5631,-0.5634,-0.5635,-0.5647,-0.565,-0.5645,-0.5664,-0.5659,-0.5661,-0.5661,-0.5663,-0.5664,-0.5662,-0.5641,0,0,0,0,0,-0.5581,-0.559,-0.5598,-0.5609,-0.5613,-0.5618,-0.5623,-0.5625,-0.5632,-0.5634,-0.5639,-0.5645,-0.5653,-0.5658,-0.5666,-0.5679,-0.568,-0.5684,-0.5685,-0.5686,-0.5687,-0.5694,-0.5695,-0.5677,-0.5677,-0.5677,0,0,-0.5585,-0.5592,-0.5597,-0.561,-0.5615,-0.5624,-0.562,-0.563,-0.5636,-0.5636,-0.5647,-0.5651,-0.5658,-0.567,-0.5675,-0.5673,-0.5693,-0.5687,-0.5688,-0.5689,-0.5695,-0.5696,-0.5698,-0.5678,-0.5678,-0.5678,0,0,-0.5597,-0.5603,-0.5613,-0.5619,-0.5628,-0.5631,-0.5633,-0.5642,-0.5644,-0.5656,-0.5655,-0.5663,-0.5676,-0.5681,-0.5685,-0.5699,-0.5698,-0.5702,-0.5708,-0.5714,-0.5715,-0.5717,-0.5721,-0.5722,-0.5703,-0.5703,-0.5703,0,-0.5601,-0.5615,-0.5618,-0.5628,-0.5633,-0.5634,-0.5643,-0.5649,-0.5659,-0.5662,-0.566,-0.5677,-0.5682,-0.5695,-0.5698,-0.5702,-0.5704,-0.5701,-0.5715,-0.5716,-0.5718,-0.5722,-0.5723,-0.5703,-0.5703,-0.5703,-0.5703,0,-0.5619,-0.5628,-0.5635,-0.5646,-0.5652,-0.5661,-0.5666,-0.5672,-0.5673,-0.5676,-0.5687,-0.5693,-0.5702,-0.5705,-0.5706,-0.5718,-0.5716,-0.5715,-0.571,-0.572,-0.5723,-0.5725,-0.5704,-0.5704,-0.5704,-0.5703,0,0,-0.5632,-0.5644,-0.5647,-0.5651,-0.5661,-0.5668,-0.5677,-0.5687,-0.5691,-0.5698,-0.5706,-0.5717,-0.5715,-0.572,-0.5722,-0.5727,-0.5737,-0.5725,-0.5725,-0.5726,-0.575,-0.5751,-0.5753,-0.5737,-0.5737,-0.5737,-0.5749,0,-0.5644,-0.5661,-0.5665,-0.5679,-0.5688,-0.5689,-0.5697,-0.5703,-0.5707,-0.5714,-0.5717,-0.5725,-0.5723,-0.5726,-0.5731,-0.5735,-0.5742,-0.5734,-0.5743,-0.5743,-0.574,-0.5755,-0.5756,-0.5767,-0.5751,-0.5751,-0.5751,0,-0.5661,-0.5669,-0.5684,-0.5693,-0.5696,-0.5704,-0.5712,-0.5719,-0.5726,-0.5728,-0.5734,-0.5735,-0.5744,-0.5739,-0.5751,-0.5746,-0.575,-0.5752,-0.5752,-0.5753,-0.5747,-0.5755,-0.577,-0.5771,-0.5754,-0.5754,-0.5753,0,-0.5668,-0.5682,-0.5694,-0.5698,-0.5708,-0.5713,-0.5717,-0.5724,-0.5729,-0.5736,-0.5739,-0.5747,-0.5751,-0.5757,-0.576,-0.5757,-0.5772,-0.5767,-0.5773,-0.5773,-0.5775,-0.5775,-0.5791,-0.5779,-0.5779,-0.5779,-0.5779,0,-0.5681,-0.569,-0.5697,-0.5704,-0.5714,-0.5718,-0.5728,-0.5732,-0.5738,-0.5745,-0.5746,-0.5752,-0.5756,-0.5763,-0.5765,-0.5774,-0.5776,-0.5778,-0.5778,-0.5777,-0.5777,-0.5779,-0.5778,-0.578,-0.5779,-0.5779,-0.5779,0,-0.569,-0.5695,-0.5707,-0.5716,-0.5718,-0.5725,-0.5733,-0.5739,-0.5743,-0.5751,-0.5754,-0.5759,-0.5767,-0.5771,-0.5781,-0.5782,-0.5792,-0.5792,-0.579,-0.579,-0.5795,-0.5794,-0.5812,-0.5815,-0.5802,-0.5802,-0.5802,0,-0.5697,-0.5705,-0.5714,-0.572,-0.5724,-0.5732,-0.5738,-0.5742,-0.5747,-0.5756,-0.5761,-0.5769,-0.5776,-0.5789,-0.5793,-0.58,-0.58,-0.5806,-0.5801,-0.58,-0.5799,-0.5799,-0.5799,-0.5807,-0.5807,-0.5807,-0.5807,0,-0.571,-0.5712,-0.572,-0.5729,-0.5736,-0.5743,-0.575,-0.5754,-0.5759,-0.5765,-0.5773,-0.5779,-0.5789,-0.5797,-0.5804,-0.5808,-0.5808,-0.5809,-0.581,-0.5809,-0.5807,-0.5807,-0.5792,-0.5808,-0.5808,-0.5808,-0.5808,-0.5808,-0.5718,-0.5725,-0.5732,-0.5741,-0.5747,-0.5753,-0.576,-0.5764,-0.5772,-0.5781,-0.5783,-0.5792,-0.5798,-0.5809,-0.5813,-0.5819,-0.5818,-0.582,-0.582,-0.5821,-0.5821,-0.5807,-0.5821,-0.5821,-0.5821,-0.5821,-0.5821,0,-0.573,-0.5736,-0.5744,-0.5754,-0.576,-0.5761,-0.5768,-0.5774,-0.5782,-0.5788,-0.5795,-0.5805,-0.5812,-0.5818,-0.5825,-0.5829,-0.5829,-0.5831,-0.583,-0.5831,-0.5822,-0.582,-0.5831,-0.5831,-0.5831,-0.5831,-0.5831,-0.5831,-0.5737,-0.5748,-0.5751,-0.5764,-0.5769,-0.5779,-0.5783,-0.5789,-0.5794,-0.5805,-0.5811,-0.5815,-0.5821,-0.5829,-0.5836,-0.5837,-0.5839,-0.5841,-0.5842,-0.5833,-0.5832,-0.5831,-0.5829,-0.5841,-0.5842,-0.585,-0.585,-0.5851]}]]